When you browse on this site, cookies collect data to enhance your experience and personalize the content and advertising you see.
Visit our Privacy Policy to learn more. By continuing to use the site, you agree to this use of cookies and data.
  • En España
  • Lista de países
  • Para 7 días
  • Temperatura del agua
  • Mapa Satelital
  • El tiempo en el mapa
  • Informadores
  • user-avatar
    Iniciar sesión

    Tiempo cada hora Ischgl

    Hoy, 23 Abril, Martes

    Tiempo Temperatura Precipitaciones Viento Presión Humedad
    00:00 -4°C° 0 mm 3 mps 565 mmHg 89%
    01:00 -4°C° 0 mm 3 mps 564 mmHg 91%
    02:00 -4°C° 0 mm 3 mps 564 mmHg 90%
    03:00 -4°C° 0 mm 3 mps 564 mmHg 90%
    04:00 -4°C° 0 mm 3 mps 564 mmHg 90%
    05:00 -2°C° 0 mm 3 mps 564 mmHg 87%
    06:00 -2°C° 0 mm 3 mps 564 mmHg 84%
    07:00 -1°C° 0 mm 3 mps 564 mmHg 82%
    08:00 0°C° 0.1 mm 3 mps 564 mmHg 79%
    09:00 +1°C° 0.1 mm 3 mps 565 mmHg 76%
    10:00 +2°C° 0.1 mm 3 mps 565 mmHg 73%
    11:00 +3°C° 0.1 mm 3 mps 565 mmHg 70%
    12:00 +4°C° 0.1 mm 3 mps 566 mmHg 67%
    13:00 +4°C° 0.1 mm 3 mps 566 mmHg 64%
    14:00 +4°C° 0.1 mm 3 mps 566 mmHg 65%
    15:00 +4°C° 0.1 mm 3 mps 566 mmHg 67%
    16:00 +3°C° 0.1 mm 3 mps 565 mmHg 68%
    17:00 +2°C° 0 mm 3 mps 565 mmHg 73%
    18:00 +1°C° 0 mm 3 mps 564 mmHg 78%
    19:00 0°C° 0 mm 3 mps 564 mmHg 84%
    20:00 -1°C° 0 mm 3 mps 564 mmHg 85%
    21:00 -1°C° 0 mm 3 mps 564 mmHg 86%
    22:00 -2°C° 0 mm 3 mps 564 mmHg 88%
    23:00 -2°C° 0 mm 3 mps 565 mmHg 88%

    Mañana, 24 Abril, Miércoles

    Tiempo Temperatura Precipitaciones Viento Presión Humedad
    00:00 -2°C° 0 mm 3 mps 565 mmHg 89%
    01:00 -2°C° 0 mm 3 mps 565 mmHg 89%
    02:00 -2°C° 0 mm 3 mps 565 mmHg 89%
    03:00 -2°C° 0 mm 3 mps 565 mmHg 89%
    04:00 -2°C° 0 mm 3 mps 565 mmHg 89%
    05:00 -2°C° 0 mm 4 mps 566 mmHg 85%
    06:00 -2°C° 0 mm 4 mps 567 mmHg 82%
    07:00 -1°C° 0 mm 4 mps 568 mmHg 79%
    08:00 +1°C° 0 mm 4 mps 569 mmHg 74%
    09:00 +3°C° 0 mm 4 mps 569 mmHg 68%
    10:00 +3°C° 0 mm 5 mps 570 mmHg 63%
    11:00 +5°C° 0 mm 5 mps 571 mmHg 61%
    12:00 +5°C° 0 mm 5 mps 571 mmHg 59%
    13:00 +6°C° 0 mm 5 mps 571 mmHg 57%
    14:00 +6°C° 0 mm 5 mps 571 mmHg 59%
    15:00 +6°C° 0 mm 5 mps 571 mmHg 61%
    16:00 +5°C° 0 mm 6 mps 571 mmHg 63%
    17:00 +3°C° 0.3 mm 5 mps 570 mmHg 69%
    18:00 +2°C° 0.3 mm 5 mps 570 mmHg 74%
    19:00 0°C° 0.3 mm 4 mps 570 mmHg 80%
    20:00 0°C° 0.3 mm 4 mps 570 mmHg 81%
    21:00 0°C° 0.3 mm 4 mps 571 mmHg 82%
    22:00 -1°C° 0.3 mm 4 mps 571 mmHg 83%
    23:00 -2°C° 0 mm 4 mps 571 mmHg 85%

    Pasado mañana, 25 Abril, Jueves

    Tiempo Temperatura Precipitaciones Viento Presión Humedad
    00:00 -2°C° 0 mm 4 mps 571 mmHg 87%
    01:00 -3°C° 0 mm 4 mps 571 mmHg 89%
    02:00 -3°C° 0 mm 4 mps 571 mmHg 89%
    03:00 -3°C° 0 mm 4 mps 571 mmHg 89%
    04:00 -4°C° 0 mm 5 mps 571 mmHg 89%
    05:00 -4°C° 0 mm 5 mps 571 mmHg 86%
    06:00 -2°C° 0 mm 5 mps 571 mmHg 82%
    07:00 -1°C° 0 mm 5 mps 572 mmHg 78%
    08:00 0°C° 0 mm 5 mps 573 mmHg 73%
    09:00 +2°C° 0 mm 5 mps 573 mmHg 68%
    10:00 +5°C° 0 mm 5 mps 574 mmHg 63%
    11:00 +5°C° 0 mm 5 mps 574 mmHg 61%
    12:00 +6°C° 0 mm 5 mps 575 mmHg 58%
    13:00 +7°C° 0 mm 5 mps 575 mmHg 55%
    14:00 +6°C° 0 mm 4 mps 575 mmHg 56%
    15:00 +6°C° 0 mm 4 mps 574 mmHg 57%
    16:00 +6°C° 0 mm 4 mps 574 mmHg 57%
    17:00 +5°C° 0 mm 4 mps 573 mmHg 65%
    18:00 +4°C° 0 mm 4 mps 573 mmHg 72%
    19:00 +2°C° 0 mm 3 mps 572 mmHg 79%
    20:00 +1°C° 0 mm 4 mps 572 mmHg 83%
    21:00 0°C° 0 mm 4 mps 572 mmHg 87%
    22:00 -1°C° 0 mm 4 mps 571 mmHg 90%
    23:00 -1°C° 0 mm 4 mps 571 mmHg 90%

    26 Abril, Viernes

    Tiempo Temperatura Precipitaciones Viento Presión Humedad
    00:00 -1°C° 0 mm 4 mps 571 mmHg 91%
    01:00 -2°C° 0 mm 4 mps 571 mmHg 91%
    02:00 -2°C° 0 mm 4 mps 571 mmHg 91%
    03:00 -2°C° 0 mm 4 mps 571 mmHg 90%
    04:00 -2°C° 0 mm 4 mps 570 mmHg 90%
    05:00 -2°C° 0 mm 4 mps 571 mmHg 86%
    06:00 -1°C° 0 mm 4 mps 571 mmHg 82%
    07:00 0°C° 0 mm 4 mps 571 mmHg 78%
    08:00 +3°C° 0.1 mm 4 mps 572 mmHg 71%
    09:00 +4°C° 0.1 mm 3 mps 573 mmHg 64%
    10:00 +5°C° 0.1 mm 3 mps 575 mmHg 58%
    11:00 +3°C° 2.1 mm 3 mps 574 mmHg 69%
    12:00 +1°C° 2.1 mm 3 mps 573 mmHg 79%
    13:00 -1°C° 2.1 mm 3 mps 572 mmHg 90%
    14:00 -2°C° 1.8 mm 3 mps 572 mmHg 92%
    15:00 -4°C° 1.8 mm 3 mps 571 mmHg 93%
    16:00 -5°C° 1.8 mm 3 mps 571 mmHg 94%
    17:00 -5°C° 1 mm 2 mps 571 mmHg 95%
    18:00 -6°C° 1 mm 2 mps 571 mmHg 95%
    19:00 -4°C° 1 mm 1 mps 570 mmHg 95%
    20:00 -6°C° 0.3 mm 1 mps 571 mmHg 94%
    21:00 -6°C° 0.3 mm 1 mps 571 mmHg 94%
    22:00 -6°C° 0.3 mm 1 mps 571 mmHg 93%
    23:00 -6°C° 0.2 mm 1 mps 571 mmHg 93%

    27 Abril, Sábado

    Tiempo Temperatura Precipitaciones Viento Presión Humedad
    00:00 -6°C° 0.2 mm 1 mps 572 mmHg 93%
    01:00 -6°C° 0.2 mm 1 mps 572 mmHg 93%
    02:00 -7°C° 0 mm 1 mps 571 mmHg 93%
    03:00 -7°C° 0 mm 1 mps 571 mmHg 93%
    04:00 -8°C° 0 mm 1 mps 570 mmHg 93%
    05:00 -7°C° 0.1 mm 1 mps 571 mmHg 90%
    06:00 -4°C° 0.1 mm 1 mps 572 mmHg 88%
    07:00 -3°C° 0.1 mm 1 mps 573 mmHg 86%
    08:00 -2°C° 0.4 mm 1 mps 574 mmHg 87%
    09:00 -1°C° 0.4 mm 1 mps 574 mmHg 89%
    10:00 -3°C° 0.4 mm 2 mps 574 mmHg 90%
    11:00 -2°C° 0.1 mm 2 mps 574 mmHg 89%
    12:00 -2°C° 0.1 mm 2 mps 574 mmHg 88%
    13:00 -1°C° 0.1 mm 2 mps 574 mmHg 86%
    14:00 -1°C° 0.1 mm 2 mps 574 mmHg 86%
    15:00 -1°C° 0.1 mm 2 mps 574 mmHg 86%
    16:00 +1°C° 0.1 mm 2 mps 574 mmHg 85%
    17:00 +1°C° 0.1 mm 1 mps 573 mmHg 88%
    18:00 0°C° 0.1 mm 1 mps 573 mmHg 91%
    19:00 0°C° 0.1 mm 1 mps 573 mmHg 93%
    20:00 -1°C° 0.1 mm 1 mps 573 mmHg 94%
    21:00 -1°C° 0.1 mm 1 mps 573 mmHg 95%
    22:00 -2°C° 0.1 mm 1 mps 572 mmHg 95%
    23:00 -4°C° 0.7 mm 2 mps 573 mmHg 95%

    28 Abril, Domingo

    Tiempo Temperatura Precipitaciones Viento Presión Humedad
    00:00 -4°C° 0.7 mm 2 mps 573 mmHg 94%
    01:00 -4°C° 0.7 mm 2 mps 573 mmHg 94%
    02:00 -5°C° 0.7 mm 2 mps 572 mmHg 94%
    03:00 -7°C° 0.7 mm 3 mps 572 mmHg 95%
    04:00 -7°C° 0.7 mm 3 mps 572 mmHg 95%
    05:00 -7°C° 0.2 mm 2 mps 572 mmHg 91%
    06:00 -7°C° 0.2 mm 2 mps 572 mmHg 88%
    07:00 -7°C° 0.2 mm 2 mps 572 mmHg 84%
    08:00 -7°C° 0.3 mm 2 mps 572 mmHg 83%
    09:00 -7°C° 0.3 mm 2 mps 572 mmHg 82%
    10:00 -6°C° 0.3 mm 2 mps 572 mmHg 80%
    11:00 -6°C° 0.5 mm 2 mps 573 mmHg 80%
    12:00 -6°C° 0.5 mm 2 mps 573 mmHg 80%
    13:00 -6°C° 0.5 mm 3 mps 573 mmHg 80%
    14:00 -6°C° 0.6 mm 3 mps 573 mmHg 81%
    15:00 -5°C° 0.6 mm 2 mps 573 mmHg 82%
    16:00 -5°C° 0.6 mm 2 mps 573 mmHg 83%
    17:00 -5°C° 0.7 mm 2 mps 573 mmHg 86%
    18:00 -6°C° 0.7 mm 2 mps 573 mmHg 88%
    19:00 -4°C° 0.7 mm 1 mps 573 mmHg 91%
    20:00 -4°C° 1.1 mm 1 mps 573 mmHg 92%
    21:00 -6°C° 1.1 mm 1 mps 574 mmHg 93%
    22:00 -6°C° 1.1 mm 1 mps 574 mmHg 94%
    23:00 -6°C° 1 mm 1 mps 574 mmHg 94%
    Mostrar más